Regional Weather Roundup
Issued by NWS

Home | Current Version | Previous Version | Text Only | Print | Product List | Glossary On
Versions: 1 2 3 4 5 6 7 8 9 10 11 12 13 14 15 16 17 18 19 20 21 22 23 24 25 26 27 28 29 30 31 32 33 34 35 36 37 38 39 40 41 42 43 44 45 46 47 48 49 50
000
ASUS44 KLIX 251411
RWRLA
LOUISIANA WEATHER ROUNDUP
NATIONAL WEATHER SERVICE NEW ORLEANS LA
900 AM CDT SUN SEP 25 2016

NOTE: "FAIR" INDICATES FEW OR NO CLOUDS BELOW 12,000 FEET WITH NO
      SIGNIFICANT WEATHER AND/OR OBSTRUCTIONS TO VISIBILITY.
      SKY/WX - SKY CONDITION AND SIGNIFICANT WEATHER.
      TMP - AIR TEMPERATURE.    DP   - DEWPOINT TEMPERATURE.
      RH  - RELATIVE HUMIDITY.  PRES - PRESSURE.
      HX  - HEAT INDEX.         WCI  - WIND CHILL INDEX.

*  THESE STATIONS ARE NOT NWS OR FAA STATIONS AND ARE NOT UNDER
   NWS QUALITY CONTROL.

LAZ040-048-061>063-065-066-069-251500-
SOUTHEAST LOUISIANA

CITY           SKY/WX    TMP DP  RH WIND       PRES   REMARKS
N.O. AUDUBON   NOT AVBL
N.O. INTL ARPT MOSUNNY   85  75  72 CALM      30.05R
N.O. LAKEFRONT MOSUNNY   83  75  77 N9        30.06R
N.O. DOWNTOWN*   N/A     84  75  74 CALM      30.06S
RESERVE*       FAIR      83  78  85 NE6       30.05S
SLIDELL        SUNNY     80  74  81 NE6       30.05S
BATON ROUGE    SUNNY     79  73  82 NE5       30.06R
BOOTHVILLE     SUNNY     84  75  74 CALM      30.06R
BELLE CHASSE   MOSUNNY   83  77  82 CALM      30.05S
BOGALUSA*      FAIR      78  71  79 CALM      30.08S
GALLIANO*      NOT AVBL
NEW ROADS*     FAIR      78  73  85 MISG      30.05S
GONZALES*      FAIR      78  74  87 CALM      30.05R FOG
HAMMOND*       SUNNY     81  70  69 CALM      30.06R
HOUMA*         SUNNY     81  77  89 E3        30.05R
PORT FOURCHON* SUNNY     84  72  65 SE5       30.04S

$$

LAZ041-044-053-054-251500-
SOUTHWEST LOUISIANA

CITY           SKY/WX    TMP DP  RH WIND       PRES   REMARKS
LAKE CHARLES   SUNNY     80  76  87 E8        30.02R
LAFAYETTE      SUNNY     80  74  81 E3        30.04R
PATTERSON      SUNNY     81  77  88 E6        30.05R
SALT POINT     NOT AVBL
NEW IBERIA     SUNNY     81  73  76 E7        30.05R
CHENAULT AIRPK SUNNY     81  73  78 E7        30.02R

$$

LAZ027-028-251500-
CENTRAL LOUISIANA

CITY           SKY/WX    TMP DP  RH WIND       PRES   REMARKS
FORT POLK      CLOUDY    78  74  86 E8        30.03F
ALEXANDRIA INT SUNNY     77  73  87 CALM      30.04S FOG
ALEXANDRIA     SUNNY     77  73  87 E3        30.06S

$$

LAZ001-002-251500-
NORTHWEST LOUISIANA

CITY           SKY/WX    TMP DP  RH WIND       PRES   REMARKS
SHREVEPORT     PTSUNNY   79  75  87 SE5       30.04S
BARKSDALE AFB  CLOUDY    77  74  90 SE6       30.05R
DTN SHREVEPORT CLOUDY    79  72  79 SE6       30.05R

$$

LAZ014-016-251500-
NORTHEAST LOUISIANA

CITY           SKY/WX    TMP DP  RH WIND       PRES   REMARKS
MONROE         SUNNY     78  73  84 CALM      30.07R
TALLULAH       SUNNY     80  72  76 CALM      30.06R

$$




USA.gov is the U.S. government's official web portal to all federal, state and local government web resources and services.